Regional Weather Roundup
Issued by NWS Goodland, KS

Home | Current Version | Previous Version | Text Only | Print | Product List | Glossary Off
Versions: 1 2 3 4 5 6 7 8 9 10 11 12 13 14 15 16 17 18 19 20 21 22 23 24 25 26 27 28 29 30 31 32 33 34 35 36 37 38 39 40 41 42 43 44 45 46 47 48 49 50

000
ASUS43 KGLD 202159
RWRGLD

GOODLAND FORECAST AREA HOURLY WEATHER ROUNDUP
NATIONAL WEATHER SERVICE GOODLAND KS
400 PM MDT SUN AUG 20 2017

...OFFICIAL OBSERVATIONS...

CITY           SKY/WX    TMP DP  RH WIND       PRES   REMARKS
GOODLAND KS    SUNNY     92  59  33 S7        29.95F
HILL CITY KS   SUNNY    101  58  24 SW9       29.87F HX 100
IMPERIAL NEB   SUNNY     90  61  37 VRB7      29.95F
MCCOOK NEB     MOSUNNY   94  64  37 NE5       29.90S
AKRON CO       SUNNY     89  47  23 NE8       30.04F
BURLINGTON CO  MOSUNNY   92  60  34 NE8       29.99F
LIMON CO       SUNNY     88  40  18 VRB5      30.08F
$$

...UNOFFICIAL OBSERVATIONS...

CITY           SKY/WX    TMP DP  RH WIND       PRES   REMARKS
LENORA KS        N/A     96  32  10 CALM        N/A
NORTON KS      SUNNY     97  48  19 S8        29.88S
TRENTON NEB      N/A     93  32  11 CALM        N/A
KIT CARSON CO    N/A     93  52  24 CALM        N/A
YUMA CO        FAIR      86  43  22 E6        30.00S
$$




USA.gov is the U.S. government's official web portal to all federal, state and local government web resources and services.